Time,TemperatureF,DewpointF,PressureIn,WindDirection,WindDirectionDegrees,WindSpeedMPH,WindSpeedGustMPH,Humidity,HourlyPrecipIn,Conditions,Clouds,dailyrainin,SoftwareType,DateUTC
2013-01-01 00:10:00,18.9,16.0,30.50,SE,138,0.0,0.0,87,0.00,,,0.00,weatherlink.com 1.10,2013-01-01 08:10:00,
2013-01-01 00:25:00,18.9,16.0,30.51,SE,146,0.0,1.0,87,0.00,,,0.00,weatherlink.com 1.10,2013-01-01 08:25:00,
2013-01-01 00:40:00,19.1,16.0,30.51,SE,135,0.0,1.0,87,0.00,,,0.00,weatherlink.com 1.10,2013-01-01 08:40:00,
2013-01-01 00:55:00,19.2,16.0,30.50,SE,146,2.0,2.0,87,0.00,,,0.00,weatherlink.com 1.10,2013-01-01 08:55:00,
2013-01-01 01:10:00,18.8,16.0,30.50,SE,136,0.0,2.0,87,0.00,,,0.00,weatherlink.com 1.10,2013-01-01 09:10:00,
2013-01-01 01:25:00,19.1,16.0,30.48,SE,134,0.0,1.0,87,0.00,,,0.00,weatherlink.com 1.10,2013-01-01 09:25:00,
2013-01-01 01:40:00,19.1,16.0,30.50,North,5,0.0,1.0,86,0.00,,,0.00,weatherlink.com 1.10,2013-01-01 09:40:00,
2013-01-01 01:56:00,18.7,16.0,30.51,SW,228,0.0,0.0,87,0.00,,,0.00,weatherlink.com 1.10,2013-01-01 09:56:00,
2013-01-01 02:11:00,18.0,15.0,30.52,SW,229,0.0,0.0,86,0.00,,,0.00,weatherlink.com 1.10,2013-01-01 10:11:00,
2013-01-01 02:26:00,17.8,15.0,30.53,SW,228,0.0,0.0,87,0.00,,,0.00,weatherlink.com 1.10,2013-01-01 10:26:00,
2013-01-01 02:41:00,17.6,14.0,30.54,SSE,148,0.0,1.0,86,0.00,,,0.00,weatherlink.com 1.10,2013-01-01 10:41:00,
2013-01-01 02:56:00,17.4,14.0,30.54,SE,138,0.0,1.0,86,0.00,,,0.00,weatherlink.com 1.10,2013-01-01 10:56:00,
2013-01-01 03:11:00,18.6,16.0,30.54,WSW,256,0.0,3.0,88,0.00,,,0.00,weatherlink.com 1.10,2013-01-01 11:11:00,
2013-01-01 03:26:00,18.0,15.0,30.54,SSW,201,0.0,1.0,86,0.00,,,0.00,weatherlink.com 1.10,2013-01-01 11:26:00,
2013-01-01 03:41:00,18.1,15.0,30.55,SE,146,0.0,1.0,87,0.00,,,0.00,weatherlink.com 1.10,2013-01-01 11:41:00,
2013-01-01 03:56:00,18.6,15.0,30.55,SW,214,0.0,0.0,87,0.00,,,0.00,weatherlink.com 1.10,2013-01-01 11:56:00,
2013-01-01 04:11:00,18.3,15.0,30.57,SW,214,0.0,0.0,86,0.00,,,0.00,weatherlink.com 1.10,2013-01-01 12:11:00,
2013-01-01 04:26:00,18.2,15.0,30.57,SSE,156,1.0,1.0,87,0.00,,,0.00,weatherlink.com 1.10,2013-01-01 12:26:00,
2013-01-01 04:41:00,18.1,15.0,30.57,SSE,156,0.0,1.0,87,0.00,,,0.00,weatherlink.com 1.10,2013-01-01 12:41:00,
2013-01-01 04:56:00,18.5,15.0,30.58,SSE,150,0.0,0.0,87,0.00,,,0.00,weatherlink.com 1.10,2013-01-01 12:56:00,
2013-01-01 05:11:00,18.6,15.0,30.58,SE,145,0.0,0.0,87,0.00,,,0.00,weatherlink.com 1.10,2013-01-01 13:11:00,
2013-01-01 05:26:00,18.9,16.0,30.57,SE,140,1.0,2.0,87,0.00,,,0.00,weatherlink.com 1.10,2013-01-01 13:26:00,
2013-01-01 05:41:00,19.5,16.0,30.57,SSE,155,0.0,1.0,87,0.00,,,0.00,weatherlink.com 1.10,2013-01-01 13:41:00,
2013-01-01 05:56:00,20.1,17.0,30.58,SSE,148,0.0,1.0,88,0.00,,,0.00,weatherlink.com 1.10,2013-01-01 13:56:00,
2013-01-01 06:11:00,20.5,18.0,30.58,SE,146,1.0,1.0,88,0.00,,,0.00,weatherlink.com 1.10,2013-01-01 14:11:00,
2013-01-01 06:26:00,20.6,17.0,30.57,SSW,195,0.0,2.0,87,0.00,,,0.00,weatherlink.com 1.10,2013-01-01 14:26:00,
2013-01-01 06:41:00,21.0,18.0,30.57,SSW,197,0.0,1.0,88,0.00,,,0.00,weatherlink.com 1.10,2013-01-01 14:41:00,
2013-01-01 06:56:00,21.1,18.0,30.57,SE,143,0.0,0.0,87,0.00,,,0.00,weatherlink.com 1.10,2013-01-01 14:56:00,
2013-01-01 07:11:00,20.6,17.0,30.58,WSW,247,0.0,0.0,87,0.00,,,0.00,weatherlink.com 1.10,2013-01-01 15:11:00,
2013-01-01 07:26:00,19.8,17.0,30.58,SSE,150,0.0,1.0,87,0.00,,,0.00,weatherlink.com 1.10,2013-01-01 15:26:00,
2013-01-01 07:41:00,19.8,17.0,30.58,SSE,149,1.0,1.0,87,0.00,,,0.00,weatherlink.com 1.10,2013-01-01 15:41:00,
2013-01-01 07:56:00,20.1,17.0,30.59,SSE,150,1.0,1.0,87,0.00,,,0.00,weatherlink.com 1.10,2013-01-01 15:56:00,
2013-01-01 08:11:00,20.3,17.0,30.60,SE,146,0.0,1.0,87,0.00,,,0.00,weatherlink.com 1.10,2013-01-01 16:11:00,
2013-01-01 08:26:00,20.6,17.0,30.60,SW,222,0.0,1.0,87,0.00,,,0.00,weatherlink.com 1.10,2013-01-01 16:26:00,
2013-01-01 08:41:00,20.4,17.0,30.61,SW,218,0.0,0.0,87,0.00,,,0.00,weatherlink.com 1.10,2013-01-01 16:41:00,
2013-01-01 08:56:00,20.3,17.0,30.61,SW,229,0.0,1.0,87,0.00,,,0.00,weatherlink.com 1.10,2013-01-01 16:56:00,
2013-01-01 09:11:00,20.4,17.0,30.62,SW,219,0.0,1.0,87,0.00,,,0.00,weatherlink.com 1.10,2013-01-01 17:11:00,
2013-01-01 09:26:00,20.6,17.0,30.62,SW,219,0.0,1.0,87,0.00,,,0.00,weatherlink.com 1.10,2013-01-01 17:26:00,
2013-01-01 09:41:00,20.6,17.0,30.63,SW,231,0.0,0.0,87,0.00,,,0.00,weatherlink.com 1.10,2013-01-01 17:41:00,
2013-01-01 09:56:00,20.9,18.0,30.64,SW,219,0.0,0.0,87,0.00,,,0.00,weatherlink.com 1.10,2013-01-01 17:56:00,
2013-01-01 10:11:00,21.1,18.0,30.64,SW,233,0.0,1.0,87,0.00,,,0.00,weatherlink.com 1.10,2013-01-01 18:11:00,
2013-01-01 10:26:00,21.2,18.0,30.64,SW,232,0.0,1.0,87,0.00,,,0.00,weatherlink.com 1.10,2013-01-01 18:26:00,
2013-01-01 10:41:00,21.6,18.0,30.64,SSW,212,0.0,1.0,87,0.00,,,0.00,weatherlink.com 1.10,2013-01-01 18:41:00,
2013-01-01 10:56:00,21.2,18.0,30.64,SSE,150,0.0,1.0,87,0.00,,,0.00,weatherlink.com 1.10,2013-01-01 18:56:00,
2013-01-01 11:11:00,21.0,18.0,30.64,SW,215,0.0,1.0,87,0.00,,,0.00,weatherlink.com 1.10,2013-01-01 19:11:00,
2013-01-01 11:26:00,21.1,18.0,30.65,SW,226,0.0,1.0,87,0.00,,,0.00,weatherlink.com 1.10,2013-01-01 19:26:00,
2013-01-01 11:41:00,21.7,18.0,30.64,SW,226,0.0,0.0,87,0.00,,,0.00,weatherlink.com 1.10,2013-01-01 19:41:00,
2013-01-01 11:56:00,21.6,18.0,30.64,SW,235,0.0,0.0,87,0.00,,,0.00,weatherlink.com 1.10,2013-01-01 19:56:00,
2013-01-01 12:12:00,21.6,18.0,30.64,SSW,200,0.0,0.0,87,0.00,,,0.00,weatherlink.com 1.10,2013-01-01 20:12:00,
2013-01-01 12:27:00,21.6,18.0,30.64,SSW,200,0.0,0.0,87,0.00,,,0.00,weatherlink.com 1.10,2013-01-01 20:27:00,
2013-01-01 12:42:00,21.8,19.0,30.64,SSW,200,0.0,0.0,87,0.00,,,0.00,weatherlink.com 1.10,2013-01-01 20:42:00,
2013-01-01 12:57:00,21.6,18.0,30.64,SSW,200,0.0,0.0,87,0.00,,,0.00,weatherlink.com 1.10,2013-01-01 20:57:00,
2013-01-01 13:12:00,21.7,18.0,30.64,SSW,200,0.0,0.0,87,0.00,,,0.00,weatherlink.com 1.10,2013-01-01 21:12:00,
2013-01-01 13:27:00,22.1,19.0,30.64,SSW,200,0.0,0.0,87,0.00,,,0.00,weatherlink.com 1.10,2013-01-01 21:27:00,
2013-01-01 13:42:00,21.9,19.0,30.64,SSW,200,0.0,0.0,87,0.00,,,0.00,weatherlink.com 1.10,2013-01-01 21:42:00,
2013-01-01 13:57:00,21.6,18.0,30.65,SSW,200,0.0,0.0,87,0.00,,,0.00,weatherlink.com 1.10,2013-01-01 21:57:00,
2013-01-01 14:12:00,21.6,18.0,30.64,WSW,238,0.0,0.0,87,0.00,,,0.00,weatherlink.com 1.10,2013-01-01 22:12:00,
2013-01-01 14:27:00,21.4,18.0,30.64,SW,229,0.0,0.0,87,0.00,,,0.00,weatherlink.com 1.10,2013-01-01 22:27:00,
2013-01-01 14:42:00,21.5,18.0,30.64,SW,229,0.0,0.0,87,0.00,,,0.00,weatherlink.com 1.10,2013-01-01 22:42:00,
2013-01-01 14:57:00,21.5,18.0,30.64,SW,229,0.0,0.0,87,0.00,,,0.00,weatherlink.com 1.10,2013-01-01 22:57:00,
2013-01-01 15:12:00,21.3,18.0,30.64,NW,320,0.0,0.0,87,0.00,,,0.00,weatherlink.com 1.10,2013-01-01 23:12:00,
2013-01-01 15:27:00,21.1,18.0,30.64,SW,233,0.0,0.0,87,0.00,,,0.00,weatherlink.com 1.10,2013-01-01 23:27:00,
2013-01-01 15:42:00,20.9,18.0,30.64,SW,233,0.0,0.0,87,0.00,,,0.00,weatherlink.com 1.10,2013-01-01 23:42:00,
2013-01-01 15:57:00,20.6,17.0,30.64,SW,233,0.0,0.0,87,0.00,,,0.00,weatherlink.com 1.10,2013-01-01 23:57:00,
2013-01-01 16:12:00,20.5,17.0,30.65,WNW,294,0.0,1.0,87,0.00,,,0.00,weatherlink.com 1.10,2013-01-02 00:12:00,
2013-01-01 16:27:00,20.5,17.0,30.66,WNW,301,0.0,0.0,87,0.00,,,0.00,weatherlink.com 1.10,2013-01-02 00:27:00,
2013-01-01 16:42:00,20.5,17.0,30.66,WNW,301,0.0,0.0,87,0.00,,,0.00,weatherlink.com 1.10,2013-01-02 00:42:00,
2013-01-01 16:57:00,20.4,17.0,30.64,South,191,0.0,0.0,87,0.00,,,0.00,weatherlink.com 1.10,2013-01-02 00:57:00,
2013-01-01 17:12:00,20.3,17.0,30.66,South,191,0.0,0.0,87,0.00,,,0.00,weatherlink.com 1.10,2013-01-02 01:12:00,
2013-01-01 17:27:00,20.3,17.0,30.65,South,191,0.0,0.0,87,0.00,,,0.00,weatherlink.com 1.10,2013-01-02 01:27:00,
2013-01-01 17:42:00,20.2,17.0,30.64,SSW,192,0.0,1.0,87,0.00,,,0.00,weatherlink.com 1.10,2013-01-02 01:42:00,
2013-01-01 17:57:00,20.1,17.0,30.65,South,191,0.0,0.0,87,0.00,,,0.00,weatherlink.com 1.10,2013-01-02 01:57:00,
2013-01-01 18:12:00,20.0,17.0,30.65,South,191,0.0,0.0,87,0.00,,,0.00,weatherlink.com 1.10,2013-01-02 02:12:00,
2013-01-01 18:27:00,19.9,17.0,30.65,South,191,0.0,0.0,87,0.00,,,0.00,weatherlink.com 1.10,2013-01-02 02:27:00,
2013-01-01 18:42:00,20.0,17.0,30.66,SSW,192,0.0,0.0,87,0.00,,,0.00,weatherlink.com 1.10,2013-01-02 02:42:00,
2013-01-01 18:57:00,20.0,17.0,30.66,SSW,192,0.0,0.0,87,0.00,,,0.00,weatherlink.com 1.10,2013-01-02 02:57:00,
2013-01-01 19:12:00,20.0,17.0,30.66,South,191,0.0,0.0,87,0.00,,,0.00,weatherlink.com 1.10,2013-01-02 03:12:00,
2013-01-01 19:27:00,20.1,17.0,30.66,South,191,0.0,0.0,87,0.00,,,0.00,weatherlink.com 1.10,2013-01-02 03:27:00,
2013-01-01 19:42:00,20.1,17.0,30.66,South,191,0.0,0.0,87,0.00,,,0.00,weatherlink.com 1.10,2013-01-02 03:42:00,
2013-01-01 19:57:00,20.0,17.0,30.66,South,191,0.0,0.0,87,0.00,,,0.00,weatherlink.com 1.10,2013-01-02 03:57:00,
2013-01-01 20:12:00,20.0,17.0,30.66,South,191,0.0,0.0,87,0.00,,,0.00,weatherlink.com 1.10,2013-01-02 04:12:00,
2013-01-01 20:27:00,20.0,17.0,30.66,South,191,0.0,0.0,87,0.00,,,0.00,weatherlink.com 1.10,2013-01-02 04:27:00,
2013-01-01 20:42:00,20.1,17.0,30.66,South,191,0.0,0.0,87,0.00,,,0.00,weatherlink.com 1.10,2013-01-02 04:42:00,
2013-01-01 20:57:00,20.0,17.0,30.67,SE,139,0.0,0.0,87,0.00,,,0.00,weatherlink.com 1.10,2013-01-02 04:57:00,
2013-01-01 21:12:00,20.0,17.0,30.66,East,91,0.0,0.0,87,0.00,,,0.00,weatherlink.com 1.10,2013-01-02 05:12:00,
2013-01-01 21:27:00,20.1,17.0,30.66,East,90,0.0,0.0,87,0.00,,,0.00,weatherlink.com 1.10,2013-01-02 05:27:00,
2013-01-01 21:42:00,20.1,17.0,30.66,East,90,0.0,0.0,87,0.00,,,0.00,weatherlink.com 1.10,2013-01-02 05:42:00,
2013-01-01 21:57:00,20.2,17.0,30.66,NNW,336,0.0,0.0,87,0.00,,,0.00,weatherlink.com 1.10,2013-01-02 05:57:00,
2013-01-01 22:12:00,20.2,17.0,30.66,NNW,347,0.0,0.0,87,0.00,,,0.00,weatherlink.com 1.10,2013-01-02 06:12:00,
2013-01-01 22:27:00,20.2,17.0,30.65,SW,229,0.0,1.0,87,0.00,,,0.00,weatherlink.com 1.10,2013-01-02 06:27:00,
2013-01-01 22:42:00,20.2,17.0,30.66,ESE,120,0.0,0.0,87,0.00,,,0.00,weatherlink.com 1.10,2013-01-02 06:42:00,
2013-01-01 22:57:00,20.2,17.0,30.66,ESE,120,0.0,0.0,87,0.00,,,0.00,weatherlink.com 1.10,2013-01-02 06:57:00,
2013-01-01 23:12:00,20.1,17.0,30.66,ESE,120,0.0,0.0,87,0.00,,,0.00,weatherlink.com 1.10,2013-01-02 07:12:00,
2013-01-01 23:27:00,20.1,17.0,30.66,ESE,120,0.0,0.0,87,0.00,,,0.00,weatherlink.com 1.10,2013-01-02 07:27:00,
2013-01-01 23:42:00,20.2,17.0,30.67,ESE,120,0.0,0.0,87,0.00,,,0.00,weatherlink.com 1.10,2013-01-02 07:42:00,
2013-01-01 23:57:00,20.3,17.0,30.67,ESE,120,0.0,0.0,87,0.00,,,0.00,weatherlink.com 1.10,2013-01-02 07:57:00,